Location: Haram ta Haram Freeway
(35.0583°N, 51.4202°E)
Time: 21:21:34
(UTC+04:30)

X-37B - Visible Passes

Search period start: 17 August 2022 00:00
Search period end: 27 August 2022 00:00
Orbit: 328 x 343 km, 45.0° (Epoch: 12 August)

Date Brightness Start Highest point End Pass type
(mag) Time Alt. Az. Time Alt. Az. Time Alt. Az.
17 Aug 0.1 05:02:48 44° WNW 05:03:35 79° SSW 05:06:27 10° SE visible
18 Aug 1.6 05:23:58 23° SW 05:23:58 23° SW 05:26:15 10° SSE visible
19 Aug 2.1 20:28:30 10° S 20:30:18 16° SE 20:31:13 14° ESE visible
20 Aug 0.4 20:47:49 10° SW 20:50:33 51° SE 20:52:02 23° ENE visible
21 Aug 1.2 21:08:16 10° WSW 21:11:00 46° NNW 21:12:26 23° NE visible
22 Aug 2.7 21:29:21 10° WNW 21:31:37 21° NNW 21:32:30 18° N visible
23 Aug 1.3 20:13:42 10° WSW 20:16:26 47° NNW 20:19:10 10° NE visible
23 Aug 3.4 21:50:50 10° NW 21:52:20 14° NNW 21:52:20 14° NNW visible
24 Aug 2.7 20:34:47 10° WNW 20:37:03 21° NNW 20:39:19 10° NE visible
25 Aug 3.2 20:56:16 10° NW 20:57:49 14° N 20:59:22 10° NNE visible
26 Aug 3.3 21:17:43 10° NNW 21:18:41 11° N 21:19:39 10° NNE visible
